Union Aéronautique de la Côte d'Azur

Union Aéronautique de la Côte d'Azur
UACA
Approuvé A.T.O. EASA – N°FR.ATO.0108

UNION des aéroclubs
Cannes “Ailes d’Azur”, Nice “Côte d’Azur”, Grasse “St Exupery”, ACCA “Francis Séverac”

Un cache-pitot se trouve à bord de chaque avion. Pensez à le mettre en place à la fin de chaque vol !

Avant de quitter l'avion, vérifiez que vous n'emportez pas la checklist

Un vol ne s'entreprend qu'avec un pare-brise parfaitement propre, il en va de votre sécurité, et de celle des autres

Après chaque vol, merci de mettre en place les pares-soleil!


Météo à Cannes:
METAR
LFMD 272200Z AUTO 28017G27KT 250V310 CAVOK 15/01 Q1005 =
LFMD 271400Z 2715/2815 24015G25KT 9999 OVC035 TEMPO 2718/2723 27022G35KT BECMG 2801/2803 VRB02KT

TAF
LFMD 271400Z 2715/2815 24015G25KT 9999 OVC035 TEMPO 2718/2723 27022G35KT BECMG 2801/2803 VRB02KT =

SR / SS: 06:14 / 17:16 UTC (LFMD 2020-02-27)